User: anonymous   Login
Location: Unspecified
(0.0000°N, 0.0000°E)
Time: 12:00:07
(UTC+00:00)
Language:

MUOS - Orbit

View from above orbital plane
View from above orbital plane
View from above satellite
View from above satellite

Ground track
Ground track

The orbit data is extracted from the following two-line orbital elements,

1 38093U 12009A   17239.50486041 0.00000000  00000-0  00000-0 0    08
2 38093   3.1367 340.4489 0050412 175.0585 185.0054  1.00270000    03
Epoch (UTC): 27 August 2017 12:06:59
Eccentricity: 0.0050412
inclination: 3.1367°
perigee height: 35574 km
apogee height: 35999 km
right ascension of ascending node: 340.4489°
argument of perigee: 175.0585°
revolutions per day: 1.00270000
mean anomaly at epoch: 185.0054°
orbit number at epoch: 0

The dashed part of the orbit path shows where the satellite is in the earth's shadow,  

DLR